Regional Weather Roundup
Issued by NWS

Home | Current Version | Previous Version | Graphics & Text | Print | Product List | Glossary On
Versions: 1 2 3 4 5 6 7 8 9 10 11 12 13 14 15 16 17 18 19 20 21 22 23 24 25 26 27 28 29 30 31 32 33 34 35 36 37 38 39 40 41 42 43 44 45 46 47 48 49 50
000
ASUS45 KCYS 191710
RWRWY

WYOMING REGIONAL WEATHER ROUNDUP
NATIONAL WEATHER SERVICE CHEYENNE WY
1100 AM MDT FRI SEP 19 2014

NOTE:  "FAIR" INDICATES FEW OR NO CLOUDS BELOW 12,000 FEET
WITH NO SIGNIFICANT WEATHER AND/OR OBSTRUCTIONS TO VISIBILITY.

WYZ001-191800-
YELLOWSTONE NATIONAL PARK

CITY           SKY/WX    TMP DP  RH WIND       PRES   REMARKS
LK YELLOWSTONE   N/A     56  46  69 VRB6      30.22R
W YELLOWSTONE  NOT AVBL

$$
WYZ002>013-054>058-071-098>099-191800-
NORTHERN WYOMING

CITY           SKY/WX    TMP DP  RH WIND       PRES   REMARKS
JACKSON        CLOUDY    52  48  87 CALM      30.17F
CODY             N/A    N/A N/A N/A MISG        N/A
GREYBULL       SUNNY     70  58  65 E3        29.94S
WORLAND        SUNNY     71  53  52 CALM      29.95F
SHERIDAN       SUNNY     73  53  49 N7        29.92R
BUFFALO        SUNNY     72  48  42 NE7       29.97R
GILLETTE       SUNNY     74  50  42 N15       29.92F
HULETT         FAIR      72  50  46 MISG      29.92
NEWCASTLE      FAIR      73  46  38 N6        29.91

$$
WYZ014>020-022>026-101>103-191800-
CENTRAL WYOMING

CITY           SKY/WX    TMP DP  RH WIND       PRES   REMARKS
BIG PINEY      SUNNY     62  48  60 E3        30.20S
PINEDALE       SUNNY     61  45  55 NW9       30.21S
DUBOIS         FAIR      61  36  39 NW23G29   30.14S
LANDER         MOSUNNY   71  44  37 SE8       30.04S
RIVERTON       MOSUNNY   69  46  43 SW9       30.04R
CASPER         MOSUNNY   77  43  29 W12       30.01S
DOUGLAS        MOSUNNY   73  48  41 W15       29.98F

$$
WYZ021-027>030-104>119-191800-
SOUTHERN WYOMING

CITY           SKY/WX    TMP DP  RH WIND       PRES   REMARKS
EVANSTON       SUNNY     65  50  58 N5        30.22R
KEMMERER       SUNNY     63  48  59 W7        30.23R
FORT BRIDGER   FAIR      66  50  55 W8        30.24R
ROCK SPRINGS   MOSUNNY   66  45  46 W12       30.18S
DIXON          FAIR      72  43  35 E3        30.19R
RAWLINS        MOSUNNY   65  46  50 W20G26    30.15S
SARATOGA       FAIR      70  41  35 SW8       30.17S
LARAMIE        SUNNY     72  41  32 SW16      30.15F
CHEYENNE       SUNNY     80  41  24 W14       30.07S
TORRINGTON     MOSUNNY   75  51  43 VRB3      29.92F
PINE BLUFFS    FAIR      79  43  27 N7        30.00S

$$



USA.gov is the U.S. government's official web portal to all federal, state and local government web resources and services.